Location: ???? ??
(36.0534°N, 43.5630°E)
Time: 14:31:50
(UTC+00:00)

SL-16 R/B - Pass Details

Date: 18 September 2019
Orbit: 842 x 846 km, 71.0° (Epoch: 14 October)

Event Time Altitude Azimuth Distance (km) Brightness Sun altitude
Rises 15:45:01 0° 325° (NW) 3,411 6.1 -8.0°
Reaches altitude 10° 15:47:46 10° 315° (NW) 2,471 5.5 -8.6°
Maximum altitude 15:52:31 28° 258° (WSW) 1,528 4.4 -9.5°
Drops below altitude 10° 15:57:15 10° 200° (SSW) 2,458 4.8 -10.5°
Sets 16:00:00 0° 189° (S) 3,388 5.3 -11.0°
